Flag for Poland Weather past 2 weeks in Radom, Poland

Now
29 °F

Passing clouds.


Feels Like: 23 °F
Forecast: 27 / 38 °F
Wind: 6 mph from South

Location: Kielce

Current Time: Jan 29, 2015 at 1:56:41 AM

Latest Report: Jan 29, 2015 at 1:00 AM


Visibility: 11 mi

Pressure: 29.63 "Hg

Humidity: 82%

Dew point: 25 °F

Location of RadomLocation

Historic Weather in Radom — Graph

°F

Radom temperature yesterday

Maximum temperature yesterday: 34 °F (at 12:00 PM)
Minimum temperature yesterday: 30 °F (at 9:00 PM)
Average temperature yesterday: 32 °F

Past Weeks' High & Low Weather Summary

 TemperatureHumidityPressure
High51 °F (Jan 17, 12:00 PM)100% (Jan 20, 3:00 AM)30.29 "Hg (Jan 20, 3:00 AM)
Low25 °F (Jan 27, 8:00 AM)61% (Jan 14, 12:00 PM)29.66 "Hg (Jan 29, 12:00 AM)
Average34 °F92%30.03 "Hg
* Reported Midnight between Jan 13 and Jan 14 — Midnight between Jan 28 and Jan 29, Radom, Weather by CustomWeather, © 2014

Note: Actual official high and low records may vary slightly from our data, if they occured in-between our weather recording intervals... More about our weather records

Advertising

Radom weather history for previous 24 hours

 ConditionsComfort  
Time TempWeatherWind HumidityBarometerVisibility
12:00 AM
Jan 29
30 °FPassing clouds.5 mph83%29.66 "Hg8 mi
11:00 PM
Jan 28
30 °FFog.6 mph88%29.69 "Hg4 mi
10:00 PM30 °FFog.6 mph89%29.73 "Hg4 mi
9:00 PM30 °FFog.5 mph90%29.77 "Hg4 mi
8:00 PM31 °FFog.5 mph89%29.81 "Hg6 mi
7:00 PM31 °FFog.3 mph89%29.84 "Hg5 mi
6:00 PM31 °FOvercast.1 mph89%29.87 "Hg5 mi
5:00 PM32 °FOvercast.3 mph83%29.90 "Hg6 mi
4:00 PM32 °FLight snow. Overcast.5 mph86%29.90 "Hg5 mi
3:00 PM33 °FSnow flurries. Low clouds.5 mph89%29.91 "Hg5 mi
2:00 PM33 °FOvercast.3 mph90%29.91 "Hg6 mi
1:00 PM33 °FSnow flurries. Low clouds.5 mph91%29.93 "Hg4 mi
12:00 PM34 °FLight snow. Low clouds.5 mph92%29.95 "Hg5 mi
11:00 AM33 °FLight snow. Overcast.5 mph92%29.96 "Hg5 mi
10:00 AM33 °FFog.3 mph91%29.97 "Hg6 mi
9:00 AM33 °FLow clouds.3 mph92%29.97 "Hg5 mi
8:00 AM33 °FSnow flurries. Low clouds.5 mph97%29.97 "Hg3 mi
7:00 AM33 °FSnow flurries. Low clouds.5 mph98%29.97 "Hg2 mi
6:00 AM33 °FLight rain. Low clouds.5 mph96%29.97 "Hg1 mi
5:00 AM33 °FSnow flurries. Low clouds.3 mph95%29.96 "Hg2 mi
4:00 AM33 °FSnow flurries. Low clouds.3 mph96%29.97 "Hg2 mi
3:00 AM33 °FSnow flurries. Low clouds.5 mph96%29.97 "Hg2 mi
2:00 AM33 °FFog.5 mph96%29.98 "Hg2 mi
1:00 AM33 °FLow clouds.5 mph97%29.98 "Hg2 mi
Weather by CustomWeather, © 2014

See weather overviewHow to use our weather pages